Vertical_Velocity
1 2 1 2 0 -0 -2 3 1 1 -1 -1 2 -0 1 2 -0 -4 1 0 -1 -2 -1 -2 -2 -2 -1 -0 0 -1 -0 1 -1 -1 -1 -0 -1 -0 -1 -1 -1 -1 -1 -0 -1 -1 -1 -1 -2
1 1 2 1 -2 -2 4 4 1 -0 -1 -1 1 -0 -0 -3 -1 -0 -0 1 -1 -0 -0 -1 -1 0 -0 -1 -0 0 -1 -1 -1 0 0 -2 -1 -1 0 1 -1 -1 0 -0 -2 -2 -1 -0 0
0 2 2 -4 -6 -5 4 3 -5 0 -1 -0 1 0 0 -1 -1 -0 0 -0 0 -0 -1 -1 -1 -1 0 -1 0 -1 -1 1 1 -1 -1 -0 -1 0 -0 -1 -1 -1 -1 -1 -0 -1 -1 -1 -1
-3 -2 -1 -7 -1 7 7 1 -5 1 -0 2 0 -0 1 -1 1 2 1 1 -0 -0 -0 -1 -0 -1 -1 0 -2 -0 -1 -1 -2 -1 0 1 1 -0 -1 0 -1 -1 -1 0 -1 -2 -2 -1 -1
-2 -2 -7 -3 2 5 4 1 -6 0 0 2 -1 -1 0 -0 -0 0 2 1 0 -0 -1 -1 -1 -1 -1 -1 -1 -1 1 -2 -1 -0 -1 -1 -2 -1 -1 -0 -1 0 -0 -0 -1 -1 -1 -1 -1
-7 -3 -11 -3 4 6 5 4 -4 0 1 1 -0 1 1 -2 0 0 1 1 1 1 1 -1 -1 -1 -2 -2 -1 -1 -0 -1 -0 -1 -1 -1 -1 -1 -0 -0 -0 -0 -0 -0 -1 -1 -0 -0 -0
-5 -3 2 2 5 -2 10 3 -2 -1 0 -1 1 -0 -0 -2 -1 1 0 -1 -0 1 -0 -0 -0 -1 -2 -2 -2 -1 -1 1 -1 -0 -0 -0 -0 -0 -1 -0 -0 -0 -1 -1 -1 -1 0 -1 -0
-3 -3 0 -7 1 11 0 3 4 -4 2 -3 0 0 -4 -1 1 0 1 1 -1 -0 -1 -1 -1 -1 -2 -1 -1 -1 -2 -1 -1 -0 -1 -1 -1 -0 -1 -1 -1 -1 -1 -1 -1 -1 -1 -1 -0
1 -11 -9 1 -3 18 2 8 3 2 -1 -1 2 1 1 -2 1 -0 -1 -0 1 0 -2 -0 -1 -2 -1 -1 -2 -2 -2 -0 -1 -1 -1 -2 -1 -2 -2 -2 -1 -0 -1 -1 -1 -1 -0 -1 -0
-10 -5 1 1 -2 8 6 6 0 -2 -1 -2 -0 3 0 -1 2 0 0 -1 -1 1 -0 -0 -1 -1 -1 0 -0 -1 0 -1 -1 -1 -1 -1 -2 -2 -2 -2 -1 -1 -0 -0 -1 -0 -0 -1 -1
-3 -10 0 11 5 4 1 2 0 -1 -1 -0 -3 -0 2 -0 2 1 1 -1 -1 -1 0 -0 -1 -1 -1 -0 -0 0 0 -1 -1 -1 -1 -2 -1 -1 -1 -1 -1 -1 -1 -1 -2 -1 -2 -1 -2
-10 -1 -3 9 -2 5 2 -1 4 1 -8 0 -3 -1 1 2 2 1 -0 -0 0 1 -0 -0 1 0 -1 -0 -1 -1 0 -1 -2 -2 -2 -1 -1 -1 -0 -0 0 -2 0 -0 -1 -1 -1 -1 -1
-4 -2 1 1 2 4 1 -3 -5 8 -1 -3 1 0 -1 0 3 -2 -2 0 -1 -0 -1 -2 0 0 0 1 1 -0 -1 -1 -1 -1 -0 -1 -1 -1 0 -1 1 -1 -0 -0 -1 -1 -1 -0 0
7 0 -1 2 3 1 3 -2 -7 9 -2 1 -1 -1 -1 -1 -0 -1 0 -0 1 -2 -0 -1 -0 -2 -1 0 -0 -1 -2 -2 0 -1 -2 -1 -2 -1 -0 -0 1 -1 -0 -1 1 -0 -0 -1 -0
3 3 0 2 4 5 1 -14 -13 6 6 -7 -4 -3 -1 1 2 2 0 -0 -1 -2 -2 -1 -2 -1 1 2 -1 1 2 1 1 -0 -0 -1 -1 -1 -2 -0 1 -0 -1 -1 0 1 -0 -0 -1
-1 4 -1 13 5 -4 2 13 -12 6 -6 -1 -1 -1 0 3 2 1 4 -1 -2 -2 -0 -3 -1 1 1 2 -2 -1 -2 -0 -1 -0 0 1 0 -1 -0 0 -1 1 -0 0 0 -2 1 0 -1
-9 -4 -0 -0 -1 -10 -12 20 -3 -2 7 4 -3 0 -0 2 3 1 -1 -4 -1 -1 0 2 1 1 -1 -1 -0 4 -1 -0 -1 1 2 1 0 -1 1 -1 -0 -0 -0 -0 -0 -1 -1 1 -1
-20 -6 -3 0 2 -5 -1 7 5 -0 6 3 -1 -3 -1 0 4 -6 -6 1 -0 -1 -1 -2 1 0 1 -1 0 1 -0 2 -1 3 1 0 -1 -0 -0 -0 0 0 2 -1 1 -2 -2 1 -0
-15 -3 7 14 10 1 3 -0 2 -2 -0 5 3 -4 -7 -6 -3 4 3 -1 -0 2 1 5 -1 4 -2 5 1 -0 3 -3 -0 2 -1 0 0 1 1 -1 -1 0 2 0 1 1 1 -1 -0
6 8 1 2 -6 -5 -4 5 4 5 2 -2 -0 1 -2 -0 -1 -1 1 0 2 2 3 2 2 2 -0 -1 2 -2 -1 1 -2 2 2 3 2 2 2 2 3 0 -1 -1 -1 -0 -1 1 -1
1 2 1 3 8 -5 3 6 0 -0 3 -1 -3 -1 -2 -3 -2 -2 -2 -1 -3 1 0 2 3 1 2 2 -1 -2 -3 3 -1 5 2 2 -2 -4 -1 6 1 11 -0 2 -2 1 1 -0 -1
5 3 -1 -1 3 -9 2 -7 -5 0 -2 -3 -1 -0 -1 0 -1 -3 -0 -4 -4 -1 -1 0 1 2 1 -1 0 2 3 1 6 -0 1 0 -3 -1 -2 1 1 0 3 1 0 -1 -1 -1 3
2 -1 1 2 2 -1 -2 2 -2 -1 -2 -3 -2 0 1 -0 -1 -3 -3 -4 0 -1 -2 0 -2 0 -2 -0 -0 0 1 3 3 -0 3 -0 -0 -0 0 -2 3 1 2 4 2 0 -0 1 -5
6 1 2 1 -0 -2 2 2 1 -4 -1 -0 -1 -1 -1 0 -2 -0 -0 -2 -2 -3 -2 1 2 -0 1 2 -1 -0 2 2 2 3 1 2 -0 1 -1 -1 0 -0 5 3 2 2 2 7 -2
11 7 -4 -2 -5 -8 3 -0 -9 -0 -3 -5 -1 -1 -2 -1 -1 1 -2 0 -0 -2 0 1 -0 -1 -0 1 1 1 3 -0 3 0 1 2 2 7 7 -1 1 -0 2 3 2 5 6 6 0
3 -3 1 -4 1 3 1 -8 -10 -1 -3 -2 -0 -1 -1 -2 -1 -1 -0 -0 1 2 -0 -2 0 -1 0 0 0 0 2 3 1 1 1 4 3 3 3 7 5 5 7 6 2 4 5 5 5
2 6 1 4 1 2 -3 1 -1 -3 -2 1 -0 3 -1 -1 -2 -1 -1 -0 0 -2 -1 -1 -2 -1 -1 0 0 -1 -1 1 2 3 3 4 1 5 4 6 8 8 3 5 5 3 4 8 3
2 -2 -2 3 -1 -2 -1 -1 -4 -1 2 2 2 1 0 0 1 -1 -2 -2 0 -1 1 -0 -2 -2 0 1 0 -1 -1 -1 -0 -0 1 3 2 6 4 5 3 3 5 4 3 5 1 6 2
-1 -0 1 2 -0 1 -2 -2 -0 1 2 3 3 1 -1 1 -0 -1 -0 -3 -1 -1 -1 -1 -2 -3 -1 -2 -0 0 -1 -2 -2 -1 -1 -0 0 2 2 3 5 5 4 2 2 4 -1 -2 -2
-1 2 3 -1 0 -3 -2 -3 -1 1 -2 -4 -1 2 2 -1 -2 -4 -2 1 1 0 -1 -2 -1 0 -1 -1 -4 -5 -3 -1 -0 4 4 4 4 3 2 2 3 1 0 3 3 1 2 -1 1
Height
5803 5809 5814 5819 5826 5828 5835 5842 5844 5846 5850 5853 5856 5859 5863 5866 5869 5872 5873 5873 5874 5876 5878 5879 5880 5882 5883 5884 5884 5885 5886 5884 5885 5886 5885 5884 5885 5884 5884 5882 5881 5881 5880 5880 5879 5879 5878 5878 5877
5796 5802 5807 5811 5817 5823 5832 5836 5838 5840 5845 5848 5852 5855 5859 5861 5864 5866 5870 5870 5871 5873 5875 5876 5878 5879 5879 5880 5882 5883 5882 5882 5883 5883 5882 5881 5881 5881 5880 5879 5878 5879 5878 5877 5876 5875 5874 5874 5874
5788 5794 5799 5802 5808 5819 5828 5831 5829 5835 5840 5844 5847 5851 5854 5857 5860 5863 5866 5867 5868 5870 5872 5873 5874 5875 5876 5877 5878 5879 5879 5880 5880 5879 5879 5879 5878 5877 5877 5877 5877 5875 5874 5874 5873 5872 5871 5871 5871
5780 5785 5791 5795 5805 5818 5823 5823 5824 5830 5835 5839 5843 5846 5850 5853 5856 5860 5863 5864 5865 5868 5869 5870 5871 5872 5873 5874 5874 5875 5875 5876 5876 5876 5876 5876 5875 5874 5874 5874 5873 5872 5871 5870 5869 5869 5867 5867 5867
5771 5777 5781 5788 5801 5811 5817 5817 5818 5825 5829 5833 5837 5842 5845 5849 5852 5855 5858 5861 5862 5864 5866 5866 5867 5869 5870 5871 5872 5872 5873 5872 5873 5873 5873 5872 5872 5872 5871 5870 5869 5869 5868 5867 5866 5865 5864 5864 5864
5764 5770 5774 5783 5799 5806 5809 5811 5813 5819 5824 5829 5833 5838 5841 5844 5848 5851 5854 5857 5859 5860 5862 5862 5864 5864 5865 5867 5867 5867 5868 5869 5869 5869 5869 5869 5868 5868 5867 5866 5866 5865 5865 5864 5862 5861 5861 5861 5860
5757 5764 5771 5779 5792 5796 5805 5805 5808 5813 5818 5824 5828 5833 5837 5839 5844 5847 5849 5852 5855 5856 5857 5858 5859 5861 5861 5862 5863 5863 5864 5865 5865 5865 5864 5864 5864 5863 5863 5863 5863 5862 5861 5860 5859 5858 5858 5857 5857
5751 5756 5762 5770 5783 5794 5798 5800 5804 5806 5812 5817 5823 5828 5831 5835 5840 5843 5845 5847 5849 5851 5853 5853 5855 5856 5857 5858 5858 5859 5860 5861 5860 5860 5860 5860 5859 5859 5859 5858 5858 5858 5857 5857 5856 5855 5854 5854 5853
5742 5748 5754 5767 5776 5787 5791 5793 5797 5801 5805 5811 5818 5823 5827 5831 5835 5838 5840 5842 5844 5845 5846 5848 5850 5851 5853 5854 5855 5856 5856 5857 5856 5856 5856 5856 5855 5855 5855 5854 5854 5854 5853 5852 5851 5851 5850 5850 5849
5732 5742 5753 5764 5768 5775 5782 5786 5789 5795 5799 5804 5811 5817 5821 5825 5830 5832 5834 5836 5838 5841 5842 5844 5846 5847 5848 5849 5850 5851 5851 5851 5851 5851 5851 5852 5852 5851 5851 5850 5849 5849 5848 5848 5847 5846 5846 5846 5845
5728 5739 5748 5756 5760 5765 5773 5778 5783 5788 5793 5798 5804 5810 5815 5820 5823 5826 5829 5831 5834 5836 5838 5840 5841 5842 5843 5844 5846 5846 5846 5846 5846 5846 5847 5848 5848 5847 5846 5845 5845 5844 5844 5843 5843 5843 5842 5841 5841
5721 5731 5737 5748 5754 5757 5766 5773 5778 5783 5786 5792 5797 5803 5808 5814 5818 5820 5823 5827 5829 5832 5833 5835 5836 5838 5838 5839 5840 5841 5842 5842 5842 5842 5843 5842 5842 5841 5841 5841 5840 5840 5839 5840 5839 5838 5837 5837 5836
5712 5720 5730 5737 5745 5750 5759 5764 5770 5778 5779 5785 5791 5797 5802 5806 5812 5814 5818 5822 5824 5827 5828 5830 5830 5832 5833 5833 5835 5836 5836 5837 5836 5837 5837 5837 5837 5836 5836 5836 5836 5836 5835 5834 5834 5833 5832 5831 5831
5705 5711 5720 5727 5736 5742 5750 5757 5763 5770 5773 5779 5784 5791 5796 5801 5805 5808 5811 5815 5818 5820 5823 5823 5826 5827 5827 5829 5830 5830 5831 5831 5831 5831 5832 5832 5832 5832 5831 5831 5831 5831 5830 5829 5828 5827 5827 5826 5825
5694 5703 5710 5717 5727 5734 5742 5750 5762 5762 5766 5772 5779 5784 5789 5794 5798 5801 5804 5808 5811 5814 5816 5819 5819 5821 5822 5823 5824 5824 5824 5824 5825 5825 5826 5827 5827 5826 5826 5826 5826 5825 5823 5823 5822 5822 5821 5821 5820
5685 5692 5701 5715 5722 5727 5735 5752 5750 5757 5761 5766 5772 5776 5781 5787 5792 5795 5799 5803 5806 5808 5810 5811 5812 5814 5815 5817 5817 5818 5818 5819 5819 5819 5820 5820 5821 5820 5820 5820 5820 5819 5818 5817 5817 5817 5817 5816 5815
5672 5690 5698 5707 5715 5721 5730 5740 5744 5749 5757 5760 5764 5770 5774 5779 5785 5789 5793 5797 5799 5801 5803 5804 5806 5807 5809 5810 5810 5810 5811 5812 5813 5813 5813 5814 5814 5813 5813 5814 5813 5812 5812 5812 5811 5811 5810 5810 5810
5679 5687 5693 5701 5710 5718 5724 5731 5737 5742 5749 5752 5756 5761 5767 5772 5777 5781 5784 5788 5792 5795 5796 5798 5800 5801 5802 5802 5803 5804 5804 5806 5806 5805 5805 5806 5805 5806 5806 5806 5806 5806 5806 5805 5805 5803 5803 5803 5802
5665 5676 5686 5694 5702 5710 5716 5722 5729 5736 5740 5745 5749 5753 5758 5763 5768 5774 5779 5783 5786 5789 5792 5793 5794 5795 5795 5796 5796 5796 5797 5796 5797 5797 5796 5797 5797 5798 5798 5798 5798 5799 5798 5796 5796 5796 5796 5795 5795
5662 5669 5677 5685 5696 5705 5711 5716 5723 5728 5733 5738 5743 5748 5752 5756 5762 5766 5771 5776 5779 5781 5784 5786 5787 5788 5788 5788 5788 5788 5787 5787 5788 5788 5788 5788 5789 5789 5790 5790 5790 5789 5788 5787 5787 5788 5787 5787 5786
5657 5665 5673 5681 5691 5699 5706 5710 5715 5721 5727 5732 5738 5742 5746 5750 5754 5758 5762 5765 5769 5772 5775 5777 5779 5780 5780 5781 5779 5779 5778 5780 5780 5780 5779 5779 5778 5779 5779 5780 5779 5779 5779 5779 5778 5778 5778 5778 5777
5654 5660 5668 5676 5684 5692 5699 5702 5709 5715 5721 5726 5731 5736 5740 5744 5747 5751 5755 5758 5761 5763 5765 5767 5769 5770 5771 5771 5771 5772 5772 5771 5771 5769 5768 5767 5768 5769 5770 5770 5770 5769 5769 5769 5769 5769 5768 5767 5768
5652 5657 5665 5672 5679 5686 5692 5698 5703 5709 5714 5720 5725 5729 5733 5737 5740 5743 5747 5750 5752 5754 5756 5757 5758 5759 5760 5761 5761 5762 5762 5762 5761 5759 5758 5757 5757 5758 5758 5759 5758 5759 5758 5758 5758 5759 5759 5758 5756
5649 5655 5662 5668 5674 5681 5686 5692 5696 5703 5709 5714 5719 5722 5726 5730 5733 5736 5738 5741 5744 5746 5747 5748 5749 5750 5750 5751 5752 5752 5751 5751 5751 5750 5749 5748 5748 5747 5747 5747 5747 5746 5747 5746 5746 5746 5747 5747 5745
5644 5650 5657 5664 5669 5675 5680 5684 5689 5696 5702 5707 5711 5715 5718 5722 5725 5728 5731 5733 5735 5736 5738 5739 5740 5740 5741 5741 5741 5741 5741 5740 5740 5739 5739 5738 5737 5737 5736 5734 5734 5733 5734 5733 5732 5733 5733 5734 5733
5642 5649 5655 5659 5663 5669 5674 5677 5683 5689 5694 5699 5703 5707 5710 5714 5717 5720 5723 5725 5726 5727 5728 5730 5730 5732 5732 5732 5732 5731 5731 5730 5729 5727 5726 5725 5725 5725 5724 5723 5722 5721 5720 5719 5719 5720 5721 5721 5721
5640 5647 5651 5656 5661 5665 5669 5674 5679 5682 5687 5691 5695 5699 5703 5706 5709 5712 5714 5716 5717 5719 5720 5721 5722 5723 5723 5723 5722 5721 5720 5718 5717 5715 5714 5712 5710 5709 5708 5707 5706 5706 5706 5706 5706 5707 5707 5708 5708
5639 5644 5649 5654 5659 5663 5666 5670 5674 5678 5682 5685 5689 5692 5696 5699 5702 5704 5706 5708 5709 5711 5712 5713 5713 5714 5713 5713 5712 5711 5709 5707 5704 5701 5698 5695 5693 5691 5689 5689 5688 5687 5687 5688 5689 5692 5693 5695 5695
5637 5641 5647 5651 5657 5660 5663 5666 5670 5673 5676 5680 5683 5686 5689 5692 5694 5696 5698 5700 5702 5703 5704 5704 5704 5704 5704 5703 5701 5699 5696 5692 5688 5683 5679 5675 5672 5669 5668 5667 5667 5666 5668 5669 5671 5674 5676 5679 5681
5634 5639 5643 5648 5654 5657 5660 5664 5666 5670 5672 5675 5677 5680 5683 5685 5687 5690 5692 5693 5694 5695 5696 5697 5696 5696 5695 5694 5692 5689 5685 5680 5674 5668 5662 5657 5653 5649 5647 5646 5646 5646 5647 5650 5652 5656 5659 5662 5665